Location: Newark
(14.9306°N, 3.4333°E)
Time: 22:17:00
(UTC+00:00)

First-Move - Pass Details

Date: 10 December 2019
Orbit: 577 x 669 km, 97.6° (Epoch: 28 January)

Event Time Altitude Azimuth Distance (km) Brightness Sun altitude
Rises 04:52:37 0° 40° (NE) 2,802 ? -16.2°
Reaches altitude 10° 04:55:40 10° 65° (ENE) 1,890 ? -15.5°
Maximum altitude 04:57:54 14° 98° (E) 1,622 ? -15.0°
Drops below altitude 10° 05:00:06 10° 131° (SE) 1,881 ? -14.5°
Sets 05:03:07 0° 156° (SSE) 2,777 ? -13.8°
